• In Russia
  • List of Countries
  • For 7 days
  • Water Temperature
  • Satellite Maps
  • Weather Map
  • Weather Widgets
  • user-avatar
    Login

    Hourly Weather Krasnogore

    Today, 23 October, Tuesday

    Time Temperature Precipitation Wind Pressure Humidity
    00:00 +4°C° 0.5 mm 4 mps 743 mmHg 87%
    01:00 +4°C° 0.5 mm 4 mps 743 mmHg 89%
    02:00 +5°C° 0 mm 4 mps 742 mmHg 88%
    03:00 +5°C° 0.3 mm 4 mps 742 mmHg 89%
    04:00 +5°C° 0.3 mm 4 mps 741 mmHg 91%
    05:00 +4°C° 0.3 mm 3 mps 741 mmHg 93%
    06:00 +4°C° 0 mm 3 mps 741 mmHg 93%
    07:00 +3°C° 0 mm 3 mps 740 mmHg 94%
    08:00 +3°C° 0 mm 3 mps 740 mmHg 95%
    09:00 +4°C° 0 mm 3 mps 739 mmHg 87%
    10:00 +5°C° 0 mm 3 mps 739 mmHg 79%
    11:00 +6°C° 0 mm 4 mps 738 mmHg 72%
    12:00 +6°C° 0 mm 4 mps 737 mmHg 69%
    13:00 +6°C° 0 mm 5 mps 736 mmHg 67%
    14:00 +7°C° 0 mm 5 mps 735 mmHg 65%
    15:00 +6°C° 0.2 mm 5 mps 734 mmHg 68%
    16:00 +5°C° 0.2 mm 5 mps 733 mmHg 71%
    17:00 +5°C° 0.2 mm 5 mps 732 mmHg 75%
    18:00 +4°C° 0.2 mm 6 mps 730 mmHg 76%
    19:00 +3°C° 0.2 mm 6 mps 729 mmHg 78%
    20:00 +3°C° 0.2 mm 7 mps 727 mmHg 79%
    21:00 +3°C° 0.3 mm 7 mps 726 mmHg 81%
    22:00 +3°C° 0.3 mm 7 mps 725 mmHg 82%
    23:00 +3°C° 0.3 mm 7 mps 723 mmHg 83%

    Tomorrow, 24 October, Wednesday

    Time Temperature Precipitation Wind Pressure Humidity
    00:00 +3°C° 0.6 mm 7 mps 722 mmHg 85%
    01:00 +3°C° 0.6 mm 6 mps 721 mmHg 86%
    02:00 +3°C° 0.6 mm 6 mps 720 mmHg 88%
    03:00 +3°C° 1.5 mm 6 mps 720 mmHg 89%
    04:00 +5°C° 1.5 mm 5 mps 719 mmHg 90%
    05:00 +5°C° 1.5 mm 5 mps 718 mmHg 92%
    06:00 +5°C° 1.5 mm 5 mps 718 mmHg 90%
    07:00 +5°C° 1.5 mm 5 mps 718 mmHg 89%
    08:00 +3°C° 1.5 mm 5 mps 718 mmHg 88%
    09:00 +5°C° 0.3 mm 5 mps 718 mmHg 84%
    10:00 +4°C° 0.3 mm 6 mps 719 mmHg 81%
    11:00 +4°C° 0.3 mm 6 mps 719 mmHg 78%
    12:00 +5°C° 0 mm 5 mps 719 mmHg 76%
    13:00 +5°C° 0 mm 5 mps 719 mmHg 74%
    14:00 +5°C° 0 mm 5 mps 720 mmHg 72%
    15:00 +5°C° 0 mm 5 mps 720 mmHg 75%
    16:00 +4°C° 0 mm 4 mps 720 mmHg 78%
    17:00 +4°C° 0 mm 3 mps 721 mmHg 82%
    18:00 +3°C° 0.1 mm 3 mps 721 mmHg 84%
    19:00 +3°C° 0.1 mm 4 mps 722 mmHg 86%
    20:00 +3°C° 0.1 mm 4 mps 722 mmHg 88%
    21:00 +3°C° 0.4 mm 4 mps 722 mmHg 88%
    22:00 +3°C° 0.4 mm 5 mps 723 mmHg 88%
    23:00 +3°C° 0.4 mm 5 mps 723 mmHg 88%

    Day after tomorrow, 25 October, Thursday

    Time Temperature Precipitation Wind Pressure Humidity
    00:00 +3°C° 0.4 mm 6 mps 724 mmHg 87%
    01:00 +3°C° 0.4 mm 6 mps 724 mmHg 86%
    02:00 +3°C° 0.4 mm 6 mps 725 mmHg 85%
    03:00 +2°C° 0.1 mm 7 mps 725 mmHg 84%
    04:00 +2°C° 0.1 mm 7 mps 726 mmHg 83%
    05:00 +2°C° 0.1 mm 7 mps 726 mmHg 82%
    06:00 +2°C° 0 mm 7 mps 727 mmHg 81%
    07:00 0°C° 0 mm 7 mps 727 mmHg 80%
    08:00 0°C° 0 mm 7 mps 728 mmHg 80%
    09:00 0°C° 0 mm 7 mps 728 mmHg 78%
    10:00 +2°C° 0 mm 6 mps 728 mmHg 76%
    11:00 +2°C° 0 mm 6 mps 729 mmHg 74%
    12:00 +2°C° 0 mm 6 mps 729 mmHg 72%
    13:00 +3°C° 0 mm 5 mps 729 mmHg 70%
    14:00 +3°C° 0 mm 5 mps 729 mmHg 67%
    15:00 +4°C° 0 mm 4 mps 729 mmHg 71%
    16:00 +3°C° 0 mm 3 mps 729 mmHg 75%
    17:00 +3°C° 0 mm 3 mps 729 mmHg 78%
    18:00 +3°C° 0 mm 2 mps 729 mmHg 81%
    19:00 +2°C° 0 mm 2 mps 729 mmHg 84%
    20:00 +2°C° 0 mm 2 mps 729 mmHg 88%
    21:00 +1°C° 0 mm 2 mps 729 mmHg 89%
    22:00 +1°C° 0 mm 2 mps 730 mmHg 91%
    23:00 +1°C° 0 mm 2 mps 730 mmHg 92%

    26 October, Friday

    Time Temperature Precipitation Wind Pressure Humidity
    00:00 +1°C° 0 mm 2 mps 730 mmHg 93%
    01:00 -1°C° 0 mm 2 mps 731 mmHg 93%
    02:00 -1°C° 0 mm 2 mps 731 mmHg 94%
    03:00 -1°C° 0 mm 2 mps 731 mmHg 94%
    04:00 -1°C° 0 mm 2 mps 732 mmHg 94%
    05:00 -1°C° 0 mm 2 mps 732 mmHg 94%
    06:00 -1°C° 0 mm 3 mps 732 mmHg 94%
    07:00 0°C° 0 mm 3 mps 732 mmHg 93%
    08:00 0°C° 0 mm 3 mps 732 mmHg 92%
    09:00 +1°C° 0 mm 3 mps 733 mmHg 87%
    10:00 +1°C° 0 mm 4 mps 733 mmHg 82%
    11:00 +3°C° 0 mm 4 mps 733 mmHg 77%
    12:00 +3°C° 0.1 mm 4 mps 733 mmHg 76%
    13:00 +4°C° 0.1 mm 4 mps 734 mmHg 75%
    14:00 +4°C° 0.1 mm 4 mps 734 mmHg 74%
    15:00 +3°C° 0 mm 3 mps 734 mmHg 76%
    16:00 +3°C° 0 mm 3 mps 735 mmHg 79%
    17:00 +2°C° 0 mm 3 mps 735 mmHg 81%
    18:00 +2°C° 0 mm 3 mps 736 mmHg 83%
    19:00 +1°C° 0 mm 3 mps 736 mmHg 86%
    20:00 +1°C° 0 mm 3 mps 737 mmHg 89%
    21:00 0°C° 0 mm 3 mps 737 mmHg 90%
    22:00 0°C° 0 mm 3 mps 737 mmHg 92%
    23:00 0°C° 0 mm 3 mps 737 mmHg 93%

    27 October, Saturday

    Time Temperature Precipitation Wind Pressure Humidity
    00:00 0°C° 0 mm 3 mps 737 mmHg 93%
    01:00 0°C° 0 mm 3 mps 737 mmHg 93%
    02:00 -1°C° 0 mm 4 mps 737 mmHg 93%
    03:00 0°C° 0 mm 5 mps 737 mmHg 92%
    04:00 0°C° 0 mm 5 mps 736 mmHg 92%
    05:00 +1°C° 0 mm 6 mps 736 mmHg 91%
    06:00 0°C° 0.2 mm 7 mps 735 mmHg 89%
    07:00 +2°C° 0.2 mm 7 mps 735 mmHg 86%
    08:00 +2°C° 0.2 mm 8 mps 734 mmHg 83%
    09:00 +2°C° 0.2 mm 8 mps 734 mmHg 82%
    10:00 +4°C° 0.2 mm 8 mps 733 mmHg 81%
    11:00 +5°C° 0.2 mm 8 mps 733 mmHg 80%
    12:00 +5°C° 0.5 mm 8 mps 733 mmHg 82%
    13:00 +5°C° 0.5 mm 7 mps 733 mmHg 83%
    14:00 +6°C° 0.5 mm 7 mps 732 mmHg 84%
    15:00 +5°C° 0.2 mm 7 mps 732 mmHg 83%
    16:00 +5°C° 0.2 mm 7 mps 732 mmHg 82%
    17:00 +5°C° 0.2 mm 7 mps 732 mmHg 80%
    18:00 +5°C° 0 mm 6 mps 733 mmHg 80%
    19:00 +4°C° 0 mm 6 mps 733 mmHg 79%
    20:00 +4°C° 0 mm 6 mps 733 mmHg 78%
    21:00 +3°C° 0 mm 6 mps 734 mmHg 79%
    22:00 +3°C° 0 mm 6 mps 734 mmHg 80%
    23:00 +2°C° 0 mm 6 mps 735 mmHg 80%

    28 October, Sunday

    Time Temperature Precipitation Wind Pressure Humidity
    00:00 +2°C° 0 mm 5 mps 736 mmHg 81%
    01:00 +2°C° 0 mm 5 mps 737 mmHg 82%
    02:00 +1°C° 0 mm 4 mps 738 mmHg 83%
    03:00 0°C° 0 mm 4 mps 738 mmHg 85%
    04:00 0°C° 0 mm 3 mps 739 mmHg 87%
    05:00 -1°C° 0 mm 2 mps 739 mmHg 89%
    06:00 -1°C° 0 mm 2 mps 740 mmHg 90%
    07:00 -1°C° 0 mm 2 mps 741 mmHg 90%
    08:00 -1°C° 0 mm 2 mps 742 mmHg 90%
    09:00 +1°C° 0 mm 2 mps 742 mmHg 84%
    10:00 +2°C° 0 mm 2 mps 743 mmHg 78%
    11:00 +4°C° 0 mm 1 mps 743 mmHg 72%
    12:00 +4°C° 0 mm 1 mps 744 mmHg 70%
    13:00 +4°C° 0 mm 1 mps 744 mmHg 68%
    14:00 +4°C° 0 mm 1 mps 744 mmHg 67%
    15:00 +4°C° 0 mm 1 mps 744 mmHg 69%
    16:00 +4°C° 0 mm 1 mps 745 mmHg 72%
    17:00 +3°C° 0 mm 1 mps 745 mmHg 74%
    18:00 +2°C° 0 mm 2 mps 745 mmHg 75%
    19:00 +2°C° 0 mm 2 mps 745 mmHg 76%
    20:00 +1°C° 0 mm 3 mps 745 mmHg 76%
    21:00 +1°C° 0.1 mm 3 mps 746 mmHg 77%
    22:00 +1°C° 0.1 mm 3 mps 746 mmHg 77%
    23:00 0°C° 0.1 mm 4 mps 746 mmHg 78%

    29 October, Monday

    Time Temperature Precipitation Wind Pressure Humidity
    00:00 0°C° 0.2 mm 4 mps 746 mmHg 78%
    01:00 0°C° 0.2 mm 5 mps 745 mmHg 79%
    02:00 -1°C° 0.2 mm 6 mps 745 mmHg 80%
    03:00 -1°C° 0.4 mm 6 mps 745 mmHg 82%
    04:00 -2°C° 0.4 mm 6 mps 744 mmHg 84%
    05:00 -2°C° 0.4 mm 6 mps 744 mmHg 86%
    06:00 -2°C° 0.8 mm 7 mps 744 mmHg 87%
    07:00 -2°C° 0.8 mm 7 mps 743 mmHg 88%
    08:00 -2°C° 0.8 mm 7 mps 743 mmHg 90%
    09:00 -1°C° 0.1 mm 7 mps 743 mmHg 90%
    10:00 -1°C° 0.1 mm 7 mps 742 mmHg 90%
    11:00 -1°C° 0.1 mm 6 mps 742 mmHg 90%
    12:00 +1°C° 0 mm 6 mps 741 mmHg 91%
    13:00 +1°C° 0 mm 6 mps 740 mmHg 92%
    14:00 +2°C° 0 mm 6 mps 740 mmHg 92%
    15:00 +2°C° 0.1 mm 6 mps 740 mmHg 94%
    16:00 +2°C° 0.1 mm 5 mps 739 mmHg 95%
    17:00 +3°C° 0.1 mm 5 mps 739 mmHg 96%
    18:00 +3°C° 0.1 mm 5 mps 738 mmHg 96%
    19:00 +5°C° 0.1 mm 5 mps 738 mmHg 97%
    20:00 +6°C° 0.1 mm 5 mps 738 mmHg 97%
    21:00 +7°C° 0 mm 5 mps 738 mmHg 96%
    22:00 +7°C° 0 mm 5 mps 737 mmHg 95%
    23:00 +8°C° 0 mm 5 mps 737 mmHg 94%
    Show more